Tracking 25710 objects as of 6-Jul-2022
HD Live streaming from Space Station
objects crossing your sky now

DELTA 1 DEB

Track DELTA 1 DEB now!
10-day predictions


NORAD ID: 42564
Int'l Code: 1972-058JX
Perigee: 836.9 km
Apogee: 956.1 km
Inclination: 99.0 °
Period: 102.8 minutes
Semi major axis: 7267 km
RCS: Unknown
Launch date: July 23, 1972
Source: United States (US)
Launch site: AIR FORCE WESTERN TEST RANGE (AFWTR)

Note: This is SATELLITE DEBRIS
aabbcc
Your satellite tracking list
Your tracking list is empty




NASA's NSSDC Master Catalog

Two Line Element Set (TLE):
1 42564U 72058JX  22186.59113814  .00001202  00000-0  80449-3 0  9997
2 42564  99.0364 117.2910 0082017 256.9360 279.7637 14.01276834439445
Source of the keplerian elements: AFSPC